Viroqua, WI

5:03 AM CST on February 12, 2016 (GMT -0600)
Viroqua

Weather History for KY51 - December, 2013

Change the Weather History Date:

Sunday, December 8, 2013

  Actual Average (KLSE) Record (KLSE)
Temperature  
Mean Temperature 10 °F 24 °F  
Max Temperature 13 °F 31 °F 60 °F (1946)
Min Temperature 7 °F 17 °F -16 °F (1876)
Degree Days  
Heating Degree Days 55 41  
Month to date heating degree days 316  
Since 1 July heating degree days 1816  
Cooling Degree Days 0 0  
Month to date cooling degree days 0  
Year to date cooling degree days 782  
Moisture  
Dew Point 5 °F    
Average Humidity 79    
Maximum Humidity 90    
Minimum Humidity 63    
Precipitation  
Precipitation 0.00 in 0.05 in 0.65 in (2009)
Month to date precipitation 0.43  
Year to date precipitation 32.13  
Snow  
Snow 0.00 in 0.40 in 9.00 in (2009)
Month to date snowfall 3.0  
Since 1 July snowfall 7.3  
Snow Depth -    
Sea Level Pressure  
Sea Level Pressure 30.20 in    
Wind  
Wind Speed 7 mph (East)    
Max Wind Speed 14 mph    
Max Gust Speed -    
Visibility 5 miles    
Events      
T = Trace of Precipitation, MM = Missing Value Source: NWS Daily Summary

Daily Weather History Graph

Daily Weather History Graph

Search for Another Location

Airport or City:

Trip Planner

Search our weather history database for the weather conditions in past years. The results will help you decide how hot, cold, wet, or windy it might be!

Date:

Astronomy

Dec. 08, 2013 Rise Set
Actual Time 7:24 AM CST 4:26 PM CST
Civil Twilight 6:51 AM CST 4:59 PM CST
Nautical Twilight 6:15 AM CST 5:35 PM CST
Astronomical Twilight 5:41 AM CST 6:10 PM CST
Moon 11:36 AM CST (12/8) 11:26 PM CST (12/8)
Length of Visible Light 10h 07m
Length of Day
9h 02m
Waxing Crescent, 40% of the Moon is Illuminated
Dec 8
Waxing Crescent
Dec 9
First Quarter
Dec 17
Full
Dec 25
Last Quarter
Jan 1
New

Hourly Weather History & Observations

Time (CST) Temp. Windchill Dew Point Humidity Pressure Visibility Wind Dir Wind Speed Gust Speed Precip Events Conditions
12:15 AM 7.5 °F 0.8 °F -2.4 °F 64% 30.52 in 10.0 mi SE 3.5 mph - N/A   Overcast
12:35 AM 7.5 °F 0.8 °F -2.6 °F 63% 30.51 in 10.0 mi SSE 3.5 mph - N/A   Overcast
12:55 AM 7.7 °F 1.0 °F -2.4 °F 63% 30.50 in 10.0 mi South 3.5 mph - N/A   Overcast
1:15 AM 7.7 °F -0.9 °F -1.8 °F 65% 30.49 in 10.0 mi South 4.6 mph - N/A   Overcast
1:35 AM 8.1 °F -0.5 °F -2.0 °F 64% 30.49 in 10.0 mi SSE 4.6 mph - N/A   Overcast
1:55 AM 8.2 °F -0.3 °F -1.5 °F 65% 30.48 in 10.0 mi SE 4.6 mph - N/A   Overcast
2:15 AM 8.1 °F -0.5 °F -0.6 °F 68% 30.47 in 10.0 mi ESE 4.6 mph - N/A   Overcast
2:35 AM 7.7 °F - -1.8 °F 65% 30.45 in 10.0 mi Calm Calm - N/A   Overcast
2:55 AM 7.9 °F 1.2 °F -0.6 °F 68% 30.45 in 10.0 mi East 3.5 mph - N/A   Overcast
3:15 AM 7.9 °F -0.7 °F -0.2 °F 70% 30.44 in 10.0 mi ENE 4.6 mph - N/A   Overcast
3:35 AM 8.2 °F -1.8 °F -0.4 °F 68% 30.42 in 10.0 mi East 5.8 mph - N/A   Overcast
3:55 AM 8.1 °F -3.2 °F -0.4 °F 68% 30.41 in 10.0 mi East 6.9 mph - N/A   Overcast
4:15 AM 8.2 °F -3.0 °F 0.1 °F 70% 30.40 in 10.0 mi ENE 6.9 mph - N/A   Overcast
4:35 AM 8.4 °F -2.8 °F -0.8 °F 66% 30.39 in 10.0 mi East 6.9 mph - N/A   Overcast
4:55 AM 8.6 °F -2.6 °F -0.2 °F 67% 30.39 in 10.0 mi East 6.9 mph - N/A   Overcast
5:15 AM 8.6 °F -3.7 °F -0.6 °F 66% 30.39 in 10.0 mi East 8.1 mph - N/A   Overcast
5:35 AM 8.6 °F -5.5 °F -0.4 °F 67% 30.38 in 10.0 mi East 10.4 mph - N/A   Overcast
5:55 AM 8.6 °F -3.7 °F 0.7 °F 70% 30.38 in 10.0 mi East 8.1 mph - N/A   Overcast
6:15 AM 8.6 °F -4.7 °F 0.9 °F 71% 30.37 in 10.0 mi East 9.2 mph - N/A   Overcast
6:35 AM 8.6 °F -4.7 °F 1.2 °F 72% 30.36 in 10.0 mi East 9.2 mph - N/A   Overcast
6:55 AM 9.0 °F -4.2 °F 2.1 °F 74% 30.35 in 7.0 mi East 9.2 mph - N/A   Overcast
7:15 AM 8.6 °F -7.0 °F 2.7 °F 77% 30.33 in 3.0 mi East 12.7 mph - N/A   Overcast
7:35 AM 8.6 °F -7.0 °F 3.0 °F 78% 30.32 in 4.0 mi East 12.7 mph - N/A   Overcast
7:55 AM 8.6 °F -7.0 °F 3.6 °F 80% 30.32 in 3.0 mi East 12.7 mph - N/A   Overcast
8:15 AM 9.0 °F -5.1 °F 3.9 °F 80% 30.32 in 3.0 mi East 10.4 mph - N/A   Overcast
8:35 AM 9.3 °F -6.1 °F 3.6 °F 77% 30.31 in 10.0 mi East 12.7 mph - N/A   Overcast
8:55 AM 9.5 °F -4.4 °F 3.4 °F 76% 30.31 in 10.0 mi ESE 10.4 mph - N/A   Overcast
9:15 AM 10.2 °F -4.3 °F 2.8 °F 72% 30.31 in 10.0 mi ESE 11.5 mph - N/A   Overcast
9:35 AM 10.4 °F -4.8 °F 1.6 °F 68% 30.30 in 10.0 mi ESE 12.7 mph - N/A   Overcast
9:55 AM 11.3 °F -2.2 °F 2.3 °F 67% 30.30 in 10.0 mi ESE 10.4 mph - N/A   Overcast
10:15 AM 11.7 °F -3.8 °F 3.6 °F 70% 30.29 in 4.0 mi East 13.8 mph - N/A   Overcast
10:35 AM 11.3 °F -3.6 °F 4.8 °F 75% 30.27 in 2.5 mi East 12.7 mph - N/A   Overcast
10:55 AM 11.3 °F -4.3 °F 5.7 °F 78% 30.26 in 2.0 mi East 13.8 mph - N/A   Overcast
11:15 AM 11.3 °F -2.9 °F 6.6 °F 81% 30.25 in 1.8 mi East 11.5 mph - N/A   Overcast
11:35 AM 11.5 °F -2.7 °F 7.3 °F 83% 30.23 in 1.8 mi East 11.5 mph - N/A   Overcast
11:55 AM 12.0 °F -1.3 °F 7.9 °F 83% 30.21 in 1.2 mi East 10.4 mph - N/A   Overcast
12:15 PM 11.8 °F 0.3 °F 8.1 °F 85% 30.20 in 1.0 mi East 8.1 mph - N/A   Overcast
12:35 PM 12.6 °F -0.6 °F 8.6 °F 84% 30.18 in 1.0 mi East 10.4 mph - N/A   Overcast
12:55 PM 12.2 °F -1.8 °F 8.4 °F 85% 30.16 in 1.0 mi East 11.5 mph - N/A   Overcast
1:15 PM 12.7 °F 0.4 °F 9.0 °F 85% 30.14 in 1.0 mi East 9.2 mph - N/A   Overcast
1:35 PM 12.9 °F 1.6 °F 9.3 °F 86% 30.13 in 0.8 mi ESE 8.1 mph - N/A   Overcast
1:55 PM 12.9 °F -0.2 °F 9.3 °F 86% 30.11 in 0.8 mi East 10.4 mph - N/A   Overcast
2:15 PM 13.1 °F 0.9 °F 9.5 °F 86% 30.10 in 0.8 mi East 9.2 mph - N/A   Overcast
2:35 PM 13.1 °F 0.9 °F 9.7 °F 86% 30.10 in 1.0 mi East 9.2 mph - N/A   Overcast
2:55 PM 13.1 °F 0.1 °F 9.5 °F 86% 30.09 in 1.0 mi East 10.4 mph - N/A   Overcast
3:15 PM 13.1 °F 0.1 °F 10.0 °F 88% 30.08 in 0.8 mi East 10.4 mph - N/A   Overcast
3:35 PM 13.1 °F 1.8 °F 10.4 °F 89% 30.07 in 1.0 mi East 8.1 mph - N/A   Overcast
3:55 PM 12.9 °F 0.7 °F 9.7 °F 87% 30.06 in 1.0 mi East 9.2 mph - N/A   Overcast
4:15 PM 13.1 °F 0.1 °F 9.9 °F 87% 30.06 in 1.2 mi East 10.4 mph - N/A   Overcast
4:35 PM 12.7 °F 1.4 °F 9.9 °F 88% 30.05 in 1.0 mi East 8.1 mph - N/A   Overcast
4:55 PM 12.7 °F 1.4 °F 10.0 °F 89% 30.05 in 2.5 mi ENE 8.1 mph - N/A   Overcast
5:15 PM 12.6 °F 1.1 °F 9.5 °F 88% 30.04 in 2.5 mi ENE 8.1 mph - N/A   Overcast
5:35 PM 12.6 °F 0.2 °F 9.5 °F 88% 30.03 in 1.5 mi East 9.2 mph - N/A   Overcast
5:55 PM 12.4 °F 2.0 °F 9.5 °F 88% 30.02 in 1.8 mi ENE 6.9 mph - N/A   Overcast
6:15 PM 12.2 °F 2.9 °F 9.3 °F 88% 30.02 in 3.0 mi ENE 5.8 mph - N/A   Overcast
6:35 PM 12.2 °F 4.3 °F 9.3 °F 88% 30.02 in 2.5 mi ENE 4.6 mph - N/A   Overcast
6:55 PM 12.0 °F 4.1 °F 9.1 °F 88% 30.02 in 4.0 mi ENE 4.6 mph - N/A   Overcast
7:15 PM 11.8 °F 3.9 °F 9.0 °F 88% 30.02 in 4.0 mi NE 4.6 mph - N/A   Overcast
7:35 PM 11.3 °F 1.9 °F 8.6 °F 89% 30.00 in 4.0 mi ENE 5.8 mph - N/A   Overcast
7:55 PM 10.9 °F 2.9 °F 8.4 °F 90% 30.00 in 4.0 mi NE 4.6 mph - N/A   Overcast
8:15 PM 10.4 °F 0.8 °F 7.7 °F 89% 29.99 in 7.0 mi NE 5.8 mph - N/A   Overcast
8:35 PM 11.1 °F 3.1 °F 8.6 °F 90% 29.99 in 7.0 mi NNE 4.6 mph - N/A   Overcast
8:55 PM 11.3 °F 1.9 °F 8.6 °F 89% 29.98 in 10.0 mi NE 5.8 mph - N/A   Overcast
9:15 PM 11.5 °F 2.1 °F 8.6 °F 88% 29.98 in 3.0 mi NE 5.8 mph - N/A   Overcast
9:35 PM 11.3 °F 3.3 °F 8.6 °F 89% 29.97 in 1.8 mi NE 4.6 mph - N/A   Overcast
9:55 PM 11.3 °F 5.1 °F 8.6 °F 89% 29.96 in 3.0 mi NE 3.5 mph - N/A   Overcast
10:15 PM 11.7 °F 5.5 °F 8.8 °F 88% 29.97 in 3.0 mi NNE 3.5 mph - N/A   Overcast
10:35 PM 11.8 °F 5.7 °F 8.8 °F 88% 29.97 in 3.0 mi North 3.5 mph - N/A   Overcast
10:55 PM 11.8 °F 3.9 °F 9.3 °F 90% 29.96 in 1.8 mi NNW 4.6 mph - N/A   Overcast
11:15 PM 11.8 °F 5.7 °F 9.3 °F 90% 29.95 in 3.0 mi North 3.5 mph - N/A   Overcast
11:35 PM 11.8 °F 5.7 °F 9.3 °F 90% 29.94 in 5.0 mi NNW 3.5 mph - N/A   Overcast
11:55 PM 11.7 °F 5.5 °F 9.1 °F 90% 29.94 in 3.0 mi NNW 3.5 mph - N/A   Overcast